Location: Newark
(13.6797°N, 8.5297°E)
Time: 14:26:50
(UTC+00:00)

Vanguard 1 - Visible Passes

Search period start: 28 January 2020 00:00
Search period end: 07 February 2020 00:00
Orbit: 650 x 3833 km, 34.2° (Epoch: 27 January)

Date Brightness Start Highest point End Pass type
(mag) Time Alt. Az. Time Alt. Az. Time Alt. Az.
28 Jan 13.7 01:35:43 19° SSW 01:35:43 19° SSW 01:45:37 10° SSE visible
28 Jan 11.6 18:40:48 10° N 18:43:11 14° NNE 18:43:11 14° NNE visible
28 Jan 14.0 23:42:25 12° SSE 23:42:25 12° SSE 23:43:24 10° SSE visible
29 Jan 13.8 01:55:05 14° SSW 01:55:05 14° SSW 02:04:29 10° S visible
29 Jan 11.4 19:00:53 10° NNW 19:03:11 18° N 19:03:11 18° N visible
30 Jan 13.9 00:01:47 13° SSE 00:01:47 13° SSE 00:03:51 10° SSE visible
30 Jan 11.4 19:21:13 10° NNW 19:23:14 21° N 19:23:14 21° N visible
31 Jan 13.9 00:21:06 14° S 00:21:06 14° S 00:23:49 10° SSE visible
31 Jan 11.6 19:41:41 10° NW 19:43:20 21° NNW 19:43:20 21° NNW visible
01 Feb 13.9 00:40:25 12° S 00:40:25 12° S 00:43:02 10° S visible
01 Feb 11.4 17:45:35 10° N 17:47:10 11° NNE 17:48:52 10° NE visible
01 Feb 11.9 20:02:19 10° NW 20:03:29 18° NW 20:03:29 18° NW visible
02 Feb 13.9 00:59:44 10° S 00:59:44 10° S 00:59:47 10° S visible
02 Feb 11.1 18:05:14 10° NNW 18:08:25 17° NNE 18:10:56 13° ENE visible
02 Feb 12.3 20:23:07 10° WNW 20:23:41 14° WNW 20:23:41 14° WNW visible
03 Feb 10.6 18:25:27 10° NNW 18:29:27 27° NNE 18:31:12 23° ENE visible
04 Feb 10.0 18:45:53 10° NW 18:50:24 43° NE 18:51:33 38° ENE visible
05 Feb 9.6 19:06:32 10° NW 19:11:17 72° NE 19:11:58 65° E visible
06 Feb 14.6 05:02:23 10° S 05:10:00 12° SSE 05:17:03 10° SE visible
06 Feb 9.9 19:27:24 10° WNW 19:32:15 70° SSW 19:32:28 69° SSW visible
